Weather in Kempton Park

South Africa     26°05′54″S   28°14′06″E
В апреле 2022 года жителям России запретили посещать сайт meteo.paraplan.net по решению Генеральной прокуратуры. Аудитория сайта уменьшилась в 10 раз. Владельцы сайта не видят смысла в поддержке погодного сервера в таких условиях. Сайт будет закрыт в октябре.
temp.,
°C
wind,
m/s
gust,
m/s
humid.,
%
clouds,
%
prec.,
mm/h
press.,
hPa
HPBL,
m
25 september, sun
sun2523:00+20nne511402 0.0 1018549
02:00+18nne510530 0.0 1018600
05:00+17nne39630 0.0 1018367
08:00+19n58490 0.0 1019580
11:00+24n56340 0.0 10171228
14:00+27nnw44230 0.0 10131942
17:00+27n44220 0.0 10122454
20:00+24n36260 0.0 1014584
26 september, mon
mon2623:00+22n38300 0.0 1015577
02:00+20nne26310 0.0 1015286
05:00+18nne26340 0.0 1015237
08:00+21n46270 0.0 1016397
11:00+26nnw44210 0.0 10141072
14:00+29nnw21150 0.0 10112642
17:00+29nne22140 0.0 10102637
20:00+26n37160 0.0 1013395
27 september, tue
tue2723:00+24n24190 0.0 1015106
02:00+21ne310230 0.0 1015411
05:00+20ne310260 0.0 1016357
08:00+22nne58260 0.0 1019489
11:00+27n44170 0.0 10181733
14:00+29n44141 0.0 10153055
17:00+28nne55162 0.0 10153087
20:00+24nne710310 0.0 1019808
28 september, wed
wed2823:00+20ne612480 0.0 1022716
02:00+18ne511540 0.0 1022563
05:00+17ene410590 0.0 1022473
08:00+19ne47480 0.0 1024616
11:00+24nne58240 0.0 10211536
14:00+27nne56180 0.0 10182382
17:00+26nne56200 0.0 10182427
20:00+22nne57280 0.0 1021918
29 september, thu
thu2923:00+19nne58420 0.0 1022698
02:00+17nne58510 0.0 1021559
05:00+15nne36560 0.0 1021409
08:00+18nne45390 0.0 1022661
11:00+23n44210 0.0 10191323
14:00+27n43150 0.0 10151998
17:00+26n33150 0.0 10141961
20:00+23n36200 0.0 1017542